sat.trackr.live / text

‹ back to catalog

VICTUS HAZE PUMA

NORAD 69646 · 2026-142A

PAYLOAD ACTIVE UNKNOWN

§ Identity

Operator
Country
US
Launch date
2026-06-19
Launch site
RLLB
Launch vehicle
Mass (kg)
RCS (m²)

Purposes: military

External: N2YO · Heavens-Above · Gunter

§ Orbital elements

Epoch: 2026-09-20T03:23:35.384928Z

Period
94.65 min
Inclination
97.4515°
Eccentricity
0.0015594
Mean motion
15.21429509 rev/d
Perigee alt
490.8 km
Apogee alt
512.3 km
Semi-major
6,879.7 km
B*
1.2217e-4
RAAN
159.6620°
Arg perigee
127.0491°
Mean anomaly
233.2174°
Rev number
1,410

§ Raw data

VICTUS HAZE PUMA1 69646U 26142A   26263.14138177  .00002681  00000+0  12217-3 0  99992 69646  97.4515 159.6620 0015594 127.0491 233.2174 15.21429509 14107

JSON: /api/v1/satellites/69646 · /tle

For live sub-satellite position, see the globe view (requires WebGL).

§ Visibility from observer

Set your observer location to see the next 7 days of passes ≥ 10°. The values pass through the URL so the page stays shareable.

No JS? Fill the form by hand. The geolocation button needs JavaScript.